Location: St. Louis
(38.6270°N, 90.1994°W)
Time: 08:53:49
(UTC-06:00)

Vanguard 2 Rocket - Pass Details

Date: 06 December 2021
Orbit: 553 x 3325 km, 32.9° (Epoch: 23 January)

Event Time Altitude Azimuth Distance (km) Brightness Sun altitude
Rises 15:59:44 0° 216° (SW) 2,778 11.1 5.7°
Reaches altitude 10° 16:02:11 10° 198° (SSW) 2,006 9.7 5.3°
Maximum altitude 16:05:35 21° 148° (SSE) 1,641 8.3 4.8°
Drops below altitude 10° 16:10:03 10° 101° (E) 2,718 8.9 4.1°
Sets 16:14:03 0° 87° (E) 4,135 9.7 3.4°
